Weather History for Bogalusa, LA

Change the Weather History Date:

Friday, August 23, 2013

  Actual Average Record
Temperature  
Mean Temperature 81 °F -  
Max Temperature 90 °F 91 °F 90 °F (2013)
Min Temperature 72 °F 70 °F 72 °F (2013)
Cooling Degree Days 16    
Growing Degree Days 31 (Base 50)    
Moisture  
Dew Point 72 °F    
Average Humidity 78    
Maximum Humidity 91    
Minimum Humidity 54    
Precipitation  
Precipitation 0.19 in - - ()
Sea Level Pressure  
Sea Level Pressure 30.01 in    
Wind  
Wind Speed 3 mph (East)    
Max Wind Speed 12 mph    
Max Gust Speed -    
Visibility 10 miles    
Events Rain , Thunderstorm    
Averages and records for this station are not official NWS values.
T = Trace of Precipitation, MM = Missing Value Source: NWS Daily Summary

Daily Weather History Graph

Daily Weather History Graph

Search for Another Location

Airport:

Trip Planner

Search our weather history database for the weather conditions in past years. The results will help you decide how hot, cold, wet, or windy it might be!

Date:

Astronomy

Aug. 23, 2013 Rise Set
Actual Time 6:30 AM CDT 7:32 PM CDT
Civil Twilight 6:05 AM CDT 7:57 PM CDT
Nautical Twilight 5:36 AM CDT 8:27 PM CDT
Astronomical Twilight 5:05 AM CDT 8:57 PM CDT
Moon 9:09 PM CDT (8/23) 9:09 AM CDT (8/23)
Length of Visible Light 13h 51m
Length of Day
13h 02m
Waning Gibbous, 91% of the Moon is Illuminated
Aug 23
Waning Gibbous
Aug 28
Last Quarter
Sep 5
New
Sep 12
First Quarter
Sep 19
Full

Hourly Weather History & Observations

Time (CDT) Temp. Heat Index Dew Point Humidity Pressure Visibility Wind Dir Wind Speed Gust Speed Precip Events Conditions
12:15 AM 76.6 °F - 72.3 °F 86% 30.04 in 10.0 mi Calm Calm - N/A   Clear
12:35 AM 76.1 °F - 72.3 °F 88% 30.04 in 10.0 mi Calm Calm - N/A   Clear
12:55 AM 76.1 °F - 72.7 °F 89% 30.04 in 10.0 mi Calm Calm - N/A   Clear
1:15 AM 75.6 °F - 71.8 °F 88% 30.03 in 10.0 mi Calm Calm - N/A   Clear
1:35 AM 75.2 °F - 71.8 °F 89% 30.03 in 10.0 mi North - - N/A   Clear
1:55 AM 74.7 °F - 71.4 °F 90% 30.02 in 10.0 mi North - - N/A   Scattered Clouds
2:15 AM 74.3 °F - 70.9 °F 89% 30.02 in 10.0 mi North - - N/A   Clear
2:35 AM 73.9 °F - 70.7 °F 90% 30.01 in 10.0 mi North - - N/A   Clear
2:55 AM 74.3 °F - 71.1 °F 90% 30.01 in 10.0 mi Calm Calm - N/A   Clear
3:15 AM 74.1 °F - 70.7 °F 89% 30.00 in 10.0 mi North - - N/A   Clear
3:35 AM 73.8 °F - 70.5 °F 90% 29.99 in 10.0 mi NNW 3.5 mph - N/A   Clear
3:55 AM 73.6 °F - 70.3 °F 90% 29.99 in 10.0 mi Calm Calm - N/A   Clear
4:15 AM 73.6 °F - 70.3 °F 90% 29.99 in 10.0 mi North - - N/A   Clear
4:35 AM 73.6 °F - 70.5 °F 90% 29.99 in 10.0 mi North - - N/A   Clear
4:55 AM 73.6 °F - 70.3 °F 90% 30.00 in 7.0 mi North - - N/A   Clear
5:15 AM 73.4 °F - 70.2 °F 90% 30.00 in 7.0 mi North - - N/A   Clear
5:35 AM 73.6 °F - 70.7 °F 91% 30.00 in 10.0 mi North - - N/A   Clear
5:55 AM 73.6 °F - 70.3 °F 90% 30.00 in 10.0 mi North - - N/A   Clear
6:15 AM 73.4 °F - 70.2 °F 90% 30.01 in 10.0 mi North - - N/A   Clear
6:35 AM 72.9 °F - 69.8 °F 90% 30.02 in 7.0 mi Calm Calm - N/A   Clear
6:55 AM 73.4 °F - 70.3 °F 90% 30.02 in 10.0 mi North - - N/A   Clear
7:15 AM 74.1 °F - 70.9 °F 90% 30.03 in 10.0 mi North - - N/A   Scattered Clouds
7:35 AM 75.0 °F - 71.4 °F 89% 30.03 in 10.0 mi North - - N/A   Scattered Clouds
7:55 AM 76.8 °F - 72.3 °F 86% 30.03 in 10.0 mi North - - N/A   Clear
8:15 AM 78.6 °F - 72.7 °F 82% 30.03 in 10.0 mi NE 4.6 mph - N/A   Clear
8:35 AM 79.7 °F - 73.2 °F 80% 30.03 in 10.0 mi North - - N/A   Clear
8:55 AM 81.3 °F 86.3 °F 73.2 °F 76% 30.03 in 10.0 mi East 5.8 mph - N/A Thunderstorm Clear
9:15 AM 82.9 °F 89.1 °F 73.4 °F 73% 30.03 in 10.0 mi NE 6.9 mph - N/A Thunderstorm Clear
9:35 AM 83.7 °F 90.1 °F 73.2 °F 71% 30.04 in 10.0 mi East 6.9 mph - N/A   Clear
9:55 AM 85.1 °F 91.8 °F 72.9 °F 67% 30.04 in 10.0 mi East 6.9 mph - N/A   Scattered Clouds
10:15 AM 84.9 °F 90.4 °F 71.6 °F 64% 30.05 in 10.0 mi ENE 9.2 mph - N/A   Mostly Cloudy
10:35 AM 84.6 °F 90.7 °F 72.3 °F 67% 30.04 in 10.0 mi ENE 6.9 mph - N/A   Mostly Cloudy
10:55 AM 85.3 °F 91.1 °F 71.8 °F 64% 30.04 in 10.0 mi ENE 8.1 mph - N/A   Mostly Cloudy
11:15 AM 86.9 °F 92.9 °F 71.6 °F 60% 30.03 in 10.0 mi ENE 9.2 mph - N/A   Scattered Clouds
11:35 AM 88.0 °F 94.2 °F 71.4 °F 58% 30.03 in 10.0 mi NE 8.1 mph - N/A   Mostly Cloudy
11:55 AM 87.8 °F 93.4 °F 71.1 °F 57% 30.02 in 10.0 mi NE 10.4 mph - N/A   Mostly Cloudy
12:15 PM 89.4 °F 95.8 °F 71.4 °F 55% 30.01 in 10.0 mi East 8.1 mph - N/A   Mostly Cloudy
12:35 PM 89.1 °F 95.5 °F 71.4 °F 56% 30.01 in 10.0 mi East 9.2 mph - N/A   Scattered Clouds
12:55 PM 89.2 °F 94.9 °F 70.9 °F 54% 30.01 in 10.0 mi ENE 4.6 mph - N/A   Clear
1:15 PM 89.2 °F 95.4 °F 71.1 °F 55% 30.00 in 10.0 mi NE 9.2 mph - N/A   Clear
1:35 PM 89.6 °F 96.6 °F 71.8 °F 56% 30.00 in 10.0 mi East 6.9 mph - N/A   Scattered Clouds
1:55 PM 89.4 °F 96.3 °F 71.6 °F 56% 30.00 in 10.0 mi ESE 6.9 mph - N/A   Scattered Clouds
2:15 PM 89.2 °F 96.4 °F 72.0 °F 57% 29.99 in 10.0 mi East 11.5 mph - N/A   Scattered Clouds
2:35 PM 89.8 °F 97.0 °F 72.1 °F 56% 29.99 in 10.0 mi ESE 5.8 mph - N/A   Clear
2:55 PM 89.8 °F 97.0 °F 72.3 °F 56% 29.98 in 10.0 mi East 9.2 mph - N/A   Clear
3:15 PM 90.3 °F 97.7 °F 72.1 °F 55% 29.98 in 10.0 mi North - - N/A   Clear
3:35 PM 88.9 °F 94.7 °F 71.1 °F 55% 29.98 in 10.0 mi East 8.1 mph - N/A   Scattered Clouds
3:55 PM 88.9 °F 96.6 °F 72.9 °F 59% 29.98 in 10.0 mi SE 8.1 mph - N/A   Scattered Clouds
4:15 PM 88.9 °F 95.6 °F 71.8 °F 57% 29.98 in 10.0 mi North - - N/A Thunderstorm Scattered Clouds
4:35 PM 78.8 °F - 73.4 °F 83% 30.00 in 3.0 mi North - - 0.17 in Rain , Thunderstorm Heavy Thunderstorms and Rain
4:55 PM 79.9 °F - 74.3 °F 83% 29.99 in 10.0 mi Calm Calm - 0.19 in Rain , Thunderstorm Light Thunderstorms and Rain
5:15 PM 80.8 °F 86.5 °F 75.0 °F 83% 29.99 in 10.0 mi Calm Calm - N/A   Clear
5:35 PM 83.5 °F 90.6 °F 74.5 °F 74% 29.98 in 10.0 mi East 3.5 mph - N/A   Clear
5:55 PM 83.3 °F 90.2 °F 74.1 °F 74% 29.98 in 10.0 mi ESE 4.6 mph - N/A   Clear
6:15 PM 83.3 °F 89.9 °F 73.8 °F 73% 29.97 in 10.0 mi SSE 4.6 mph - N/A   Clear
6:35 PM 82.6 °F 88.8 °F 73.8 °F 75% 29.96 in 10.0 mi Calm Calm - N/A   Clear
6:55 PM 82.8 °F 89.0 °F 73.6 °F 74% 29.96 in 10.0 mi Calm Calm - N/A   Clear
7:15 PM 82.4 °F 88.7 °F 74.1 °F 76% 29.97 in 10.0 mi Calm Calm - N/A   Clear
7:35 PM 81.0 °F 86.9 °F 75.2 °F 83% 29.97 in - Calm Calm - N/A   Clear
7:55 PM 80.2 °F 85.5 °F 75.4 °F 85% 29.98 in 10.0 mi Calm Calm - N/A   Clear
8:15 PM 79.2 °F - 75.2 °F 88% 29.99 in 10.0 mi Calm Calm - N/A   Clear
8:35 PM 79.0 °F - 75.2 °F 88% 30.00 in 10.0 mi Calm Calm - N/A   Clear
8:55 PM 78.6 °F - 75.0 °F 89% 30.00 in 10.0 mi Calm Calm - N/A   Clear
9:15 PM 77.9 °F - 74.3 °F 89% 30.00 in 10.0 mi Calm Calm - N/A   Clear
9:35 PM 77.2 °F - 73.8 °F 89% 30.01 in 10.0 mi Calm Calm - N/A   Clear
9:55 PM 77.4 °F - 73.9 °F 89% 30.03 in 10.0 mi Calm Calm - N/A   Clear
10:15 PM 76.8 °F - 73.4 °F 89% 30.02 in 10.0 mi Calm Calm - N/A   Clear
10:35 PM 77.0 °F - 73.6 °F 89% 30.02 in 10.0 mi Calm Calm - N/A   Clear
10:55 PM 77.0 °F - 73.4 °F 89% 30.03 in - North - - N/A   Unknown
11:15 PM 76.3 °F - 72.9 °F 89% 30.03 in - Calm Calm - N/A   Unknown
11:35 PM 76.3 °F - 72.7 °F 89% 30.03 in - Calm Calm - N/A   Unknown
11:55 PM 75.7 °F - 72.3 °F 89% 30.03 in - Calm Calm - N/A   Unknown